Location: Chavannes
(47.1090°N, 0.2226°W)
Time: 13:24:35
(UTC+00:00)

Cosmos 1727 Rocket - Pass Details

Date: 16 October 2021
Orbit: 960 x 997 km, 82.9° (Epoch: 02 December)

Event Time Altitude Azimuth Distance (km) Brightness Sun altitude
Rises 18:11:29 0° 350° (N) 3,688 7.1 -11.0°
Reaches altitude 10° 18:14:01 10° 350° (N) 2,731 6.5 -11.4°
Maximum altitude 18:20:16 81° 264° (W) 984 4.1 -12.5°
Drops below altitude 10° 18:26:26 10° 178° (S) 2,692 6.3 -13.5°
Sets 18:28:54 0° 177° (S) 3,632 6.9 -13.9°
